Weather History for Houghton, MI

Change the Weather History Date:

Sunday, November 18, 2012

  Actual Average Record
Temperature  
Mean Temperature 44 °F -  
Max Temperature 50 °F 36 °F 64 °F (1953)
Min Temperature 37 °F 25 °F 7 °F (1959)
Degree Days  
Heating Degree Days 22    
Moisture  
Dew Point 32 °F    
Average Humidity 63    
Maximum Humidity 79    
Minimum Humidity 44    
Precipitation  
Precipitation 0.00 in - - ()
Sea Level Pressure  
Sea Level Pressure 30.27 in    
Wind  
Wind Speed 9 mph (South)    
Max Wind Speed 14 mph    
Max Gust Speed 21 mph    
Visibility 9 miles    
Events      
Averages and records for this station are not official NWS values.
T = Trace of Precipitation, MM = Missing Value Source: NWS Daily Summary

Daily Weather History Graph

Daily Weather History Graph

Search for Another Location

Airport:

Trip Planner

Search our weather history database for the weather conditions in past years. The results will help you decide how hot, cold, wet, or windy it might be!

Date:

Astronomy

Nov. 18, 2012 Rise Set
Actual Time 8:02 AM EST 5:15 PM EST
Civil Twilight 7:29 AM EST 5:48 PM EST
Nautical Twilight 6:51 AM EST 6:26 PM EST
Astronomical Twilight 6:15 AM EST 7:02 PM EST
Moon 12:25 PM EST (11/18) 10:40 PM EST (11/18)
Length of Visible Light 10h 19m
Length of Day
9h 12m
Waxing Crescent, 30% of the Moon is Illuminated
Nov 18
Waxing Crescent
Nov 20
First Quarter
Nov 28
Full
Dec 6
Last Quarter
Dec 13
New

Hourly Weather History & Observations

Time (EST) Temp. Windchill Dew Point Humidity Pressure Visibility Wind Dir Wind Speed Gust Speed Precip Events Conditions
12:53 AM 41.0 °F 35.2 °F 34.0 °F 76% 30.32 in 8.0 mi South 9.2 mph - N/A   Overcast
1:53 AM 41.0 °F 37.1 °F 34.0 °F 76% 30.34 in 7.0 mi SW 5.8 mph - N/A   Overcast
2:53 AM 39.9 °F 34.5 °F 34.0 °F 79% 30.34 in 7.0 mi South 8.1 mph - N/A   Clear
3:53 AM 39.9 °F 33.9 °F 33.1 °F 77% 30.33 in 8.0 mi SSW 9.2 mph - N/A   Partly Cloudy
4:53 AM 39.9 °F 33.9 °F 32.0 °F 73% 30.32 in 8.0 mi South 9.2 mph - N/A   Clear
5:53 AM 39.0 °F 33.4 °F 32.0 °F 76% 30.32 in 8.0 mi South 8.1 mph - N/A   Clear
6:53 AM 39.2 °F 33.0 °F 30.2 °F 70% 30.28 in 8.0 mi South 9.2 mph - N/A   Clear
7:53 AM 37.9 °F 30.9 °F 30.9 °F 76% 30.31 in 8.0 mi South 10.4 mph - N/A   Clear
8:53 AM 39.0 °F 33.4 °F 30.9 °F 73% 30.31 in 6.0 mi South 8.1 mph - N/A   Haze
9:53 AM 41.0 °F 34.7 °F 30.9 °F 67% 30.30 in 7.0 mi South 10.4 mph - N/A   Clear
10:53 AM 44.1 °F 38.6 °F 30.9 °F 60% 30.30 in 9.0 mi SSE 10.4 mph - N/A   Clear
11:53 AM 46.9 °F - 28.9 °F 50% 30.28 in 10.0 mi SSE 12.7 mph - N/A   Overcast
12:53 PM 48.9 °F - 28.9 °F 46% 30.26 in 10.0 mi SSE 10.4 mph 16.1 mph N/A   Mostly Cloudy
1:53 PM 48.9 °F - 30.9 °F 50% 30.25 in 10.0 mi SE 8.1 mph - N/A   Overcast
2:53 PM 48.9 °F - 30.0 °F 48% 30.22 in 10.0 mi ESE 6.9 mph - N/A   Overcast
3:53 PM 48.0 °F - 33.1 °F 56% 30.21 in 10.0 mi ESE 6.9 mph - N/A   Overcast
4:53 PM 50.0 °F - 28.9 °F 44% 30.21 in 10.0 mi SSE 11.5 mph - N/A   Overcast
5:53 PM 48.0 °F - 30.0 °F 50% 30.21 in 10.0 mi SSE 13.8 mph 20.7 mph N/A   Overcast
6:53 PM 46.9 °F - 30.9 °F 54% 30.21 in 10.0 mi SSE 11.5 mph - N/A   Overcast
7:53 PM 46.9 °F - 32.0 °F 56% 30.20 in 10.0 mi SSE 12.7 mph - 0.00 in   Overcast
10:53 PM 46.9 °F - 33.1 °F 59% 30.19 in 10.0 mi South 10.4 mph - N/A   Mostly Cloudy
11:53 PM 45.0 °F 40.6 °F 34.0 °F 65% 30.19 in 10.0 mi South 8.1 mph - N/A   Clear